Home > Weather > Coeur d'Alene > Past weeks

Flag for U.S.A. Weather for the Past 2 Weeks in Coeur d'Alene, Idaho, U.S.A.

Now
43 °F

Passing clouds.


Feels Like: 43 °F
Forecast: 30 / 47 °F
Wind: No wind

Location: Coeur d'Alene Weather Reporting System

Current Time: Feb 10, 2016 at 2:30:04 PM

Latest Report: Feb 10, 2016 at 1:35 PM


Visibility: 10 mi

Pressure: 30.20 "Hg (27.87 "Hg at 655m altitude)

Humidity: 81%

Dew point: 37 °F

Location of Coeur d'AleneLocation

Historic Weather in Coeur d'Alene — Graph

°F

Coeur d'Alene Temperature Yesterday

Maximum temperature yesterday: 50 °F (at 2:55 PM)
Minimum temperature yesterday: 30 °F (at 12:55 AM)
Average temperature yesterday: 36 °F

High & Low Weather Summary for the Past Weeks

 TemperatureHumidityPressure
High50 °F (Feb 8, 1:55 PM)100% (Jan 27, 6:35 PM)30.62 "Hg (Jan 27, 6:35 PM)
Low18 °F (Feb 3, 5:15 AM)54% (Feb 8, 12:35 PM)29.56 "Hg (Jan 29, 1:15 PM)
Average34 °F84%30.17 "Hg
* Reported Jan 26 12:15 PM — Feb 10 12:55 PM, Coeur d'Alene, Weather by CustomWeather, © 2016

Note: Actual official high and low records may vary slightly from our data, if they occured in-between our weather recording intervals... More about our weather records

Advertising

Coeur d'Alene Weather History for the Previous 24 Hours

 ConditionsComfort  
Time TempWeatherWind HumidityBarometerVisibility
12:55 PM
Wed, Feb 10
39 °FSunny.3 mph87%30.22 "Hg10 mi
12:35 PM39 °FSunny.5 mph87%30.23 "Hg10 mi
12:15 PM39 °FPassing clouds.7 mph87%30.22 "Hg10 mi
11:55 AM37 °FPartly sunny.10 mph87%30.23 "Hg10 mi
11:35 AM36 °FScattered clouds.8 mph100%30.25 "Hg10 mi
11:15 AM36 °FSunny.8 mph100%30.25 "Hg10 mi
10:55 AM36 °FScattered clouds.7 mph93%30.26 "Hg10 mi
10:35 AM36 °FLow clouds.6 mph87%30.25 "Hg1 mi
10:15 AM34 °FLow clouds.9 mph93%30.25 "Hg1 mi
9:55 AM34 °FLow clouds.7 mph87%30.26 "Hg1 mi
9:35 AM34 °FLow clouds.8 mph87%30.25 "Hg1 mi
9:15 AM32 °FLow clouds.7 mph93%30.25 "Hg1 mi
8:55 AM32 °FLow clouds.8 mph93%30.24 "Hg1 mi
8:35 AM30 °FLow clouds.8 mph100%30.24 "Hg0 mi
8:15 AM30 °FLow clouds.7 mph93%30.23 "Hg0 mi
7:55 AM28 °FLow clouds.5 mph93%30.23 "Hg0 mi
7:35 AM28 °FPassing clouds.3 mph86%30.23 "Hg10 mi
7:15 AM28 °FSunny.5 mph86%30.22 "Hg2 mi
6:55 AM28 °FPassing clouds.5 mph86%30.24 "Hg1 mi
6:35 AM28 °FClear.5 mph86%30.24 "Hg10 mi
6:15 AM27 °FClear.5 mph93%30.25 "Hg10 mi
5:55 AM27 °FPassing clouds.3 mph93%30.24 "Hg9 mi
5:35 AM28 °FPassing clouds.5 mph86%30.24 "Hg1 mi
5:15 AM28 °FPassing clouds.6 mph86%30.24 "Hg1 mi
4:55 AM28 °FLow clouds.3 mph93%30.25 "Hg0 mi
4:35 AM28 °FLow clouds.3 mph93%30.24 "Hg0 mi
4:15 AM30 °FLow clouds.6 mph86%30.23 "Hg0 mi
3:55 AM30 °FLow clouds.No wind93%30.24 "Hg0 mi
3:35 AM30 °FLow clouds.3 mph93%30.24 "Hg0 mi
3:15 AM30 °FLow clouds.No wind86%30.24 "Hg0 mi
2:55 AM30 °FPassing clouds.3 mph86%30.23 "Hg1 mi
2:35 AM30 °FClear.3 mph93%30.23 "Hg4 mi
2:15 AM30 °FClear.3 mph86%30.23 "Hg10 mi
1:55 AM30 °FClear.No wind86%30.24 "Hg10 mi
1:35 AM30 °FClear.No wind86%30.24 "Hg10 mi
1:15 AM28 °FClear.3 mph86%30.23 "Hg9 mi
12:55 AM30 °FClear.5 mph86%30.23 "Hg10 mi
12:35 AM30 °FClear.No wind86%30.24 "Hg10 mi
12:15 AM30 °FClear.No wind93%30.24 "Hg10 mi
11:55 PM
Tue, Feb 9
30 °FClear.No wind86%30.23 "Hg10 mi
11:35 PM30 °FClear.5 mph86%30.24 "Hg10 mi
11:15 PM32 °FClear.No wind87%30.24 "Hg10 mi
10:55 PM32 °FClear.7 mph87%30.23 "Hg10 mi
10:35 PM34 °FClear.5 mph87%30.24 "Hg10 mi
10:15 PM30 °FClear.5 mph86%30.23 "Hg10 mi
9:55 PM30 °FClear.No wind86%30.23 "Hg10 mi
9:15 PM32 °FClear.6 mph87%30.22 "Hg10 mi
8:55 PM32 °FClear.6 mph80%30.23 "Hg10 mi
8:35 PM34 °FClear.3 mph81%30.23 "Hg10 mi
7:55 PM36 °FClear.7 mph75%30.22 "Hg10 mi
7:35 PM36 °FClear.5 mph81%30.22 "Hg10 mi
6:55 PM36 °FClear.N/A75%30.23 "Hg10 mi
6:35 PM37 °FClear.5 mph75%30.23 "Hg10 mi
6:15 PM37 °FClear.3 mph70%30.23 "Hg10 mi
5:35 PM39 °FClear.7 mph70%30.22 "Hg10 mi
4:55 PM45 °FSunny.10 mph61%30.23 "Hg10 mi
4:15 PM46 °FSunny.8 mph66%30.24 "Hg10 mi
3:35 PM50 °FSunny.12 mph58%30.25 "Hg10 mi
2:55 PM50 °FSunny.9 mph62%30.26 "Hg10 mi
2:15 PM48 °FSunny.13 mph66%30.26 "Hg10 mi
Weather by CustomWeather, © 2016

See weather overviewHow to use our weather pages